Location: Koussan�
(15.2012°N, 12.5548°W)
Time: 18:06:48
(UTC+00:00)

Nadezhda 2 Rocket - Pass Details

Date: 20 October 2020
Orbit: 948 x 1010 km, 83.0° (Epoch: 30 November)

Event Time Altitude Azimuth Distance (km) Brightness Sun altitude
Rises 19:46:21 0° 359° (N) 3,724 7.5 -19.9°
Reaches altitude 10° 19:48:54 10° 2° (N) 2,778 6.8 -20.5°
Maximum altitude 19:55:16 72° 86° (E) 1,058 4.4 -22.0°
Drops below altitude 10° 20:01:39 10° 170° (S) 2,779 6.8 -23.5°
Sets 20:04:11 0° 172° (S) 3,725 7.5 -24.1°
